GOES 18

Last updated on Wed Sep 17 2025 00:02:23 GMT+0000 (Coordinated Universal Time)

1 51850U 22021A 25259.57822628 .00000077 00000+0 00000+0 0 9991 2 51850 0.0368 34.9122 0000708 219.1679 172.8512 1.00270583 3846
UTC large
Height (km)
Speed (km/s)
/
Latitude / Longitude
Inclination (degrees)
Orbital Period (minutes)
Azimuth
Elevation
Range (km)
Doppler Factor

Next 0 passes for location: London (51.5072 / 0.1276)

Sorry there are no passes over London.